FW4582 Weather Reports


time (UTC)temp
C
wind
direction
speed
KPH
gust
KPH
rain 1hr
cm
rain 24hr
cm
rain mn
cm
humidity
%
barometer
mb
20260503193204 18 164 0.0 4.8 0.00 0.00 0.00 62 1016.2
20260503192704 18 152 0.0 3.2 0.00 0.00 0.00 64 1016.1
20260503192204 18 127 0.0 4.8 0.00 0.00 0.00 64 1016.1
20260503191704 18 126 0.0 4.8 0.00 0.00 0.00 62 1016.2
20260503185704 17 127 0.0 11.3 0.00 0.00 0.00 65 1016.2
20260503185204 17 131 1.6 11.3 0.00 0.00 0.00 65 1016.2
20260503184704 17 128 1.6 3.2 0.00 0.00 0.00 64 1016.2
20260503184204 17 124 1.6 3.2 0.00 0.00 0.00 66 1016.2
20260503183704 17 127 0.0 3.2 0.00 0.00 0.00 66 1016.2
20260503183204 17 128 1.6 3.2 0.00 0.00 0.00 65 1016.2
20260503182704 17 122 0.0 4.8 0.00 0.00 0.00 66 1016.2
20260503182204 17 126 0.0 4.8 0.00 0.00 0.00 66 1016.2
20260503181705 17 126 1.6 4.8 0.00 0.00 0.00 64 1016.1
20260503180704 17 167 0.0 4.8 0.00 0.00 0.00 66 1016.1
20260503175204 17 93 0.0 3.2 0.00 0.00 0.00 69 1016.2
20260503174704 16 117 0.0 3.2 0.00 0.00 0.00 71 1016.1
20260503173704 16 129 0.0 4.8 0.00 0.00 0.00 70 1016.2
20260503173203 16 129 0.0 4.8 0.00 0.00 0.00 72 1016.0
20260503172704 16 127 0.0 1.6 0.00 0.00 0.00 71 1016.1
20260503171704 16 122 0.0 3.2 0.00 0.00 0.00 73 1016.2
20260503171204 15 128 0.0 1.6 0.00 0.00 0.00 75 1016.2
20260503170704 15 127 0.0 1.6 0.00 0.00 0.00 77 1016.4
20260503170204 15 94 0.0 1.6 0.00 0.00 0.00 78 1016.4
20260503160204 14 127 0.0 1.6 0.00 0.00 0.00 81 1016.3
20260503150704 13 126 0.0 1.6 0.00 0.00 0.00 85 1015.7
20260503150204 13 121 0.0 1.6 0.00 0.00 0.00 86 1015.8
20260503140205 12 123 0.0 0.0 0.00 0.00 0.00 86 1015.1
20260503131204 12 123 0.0 0.0 0.00 0.00 0.00 85 1014.5
20260503130704 12 123 0.0 0.0 0.00 0.00 0.00 85 1014.5
20260503130205 12 123 0.0 0.0 0.00 0.00 0.00 85 1014.5
20260503120204 12 123 0.0 0.0 0.00 0.00 0.00 83 1014.1
20260503110704 12 122 0.0 0.0 0.00 0.00 0.00 83 1014.5
20260503110205 12 123 0.0 0.0 0.00 0.00 0.00 83 1014.4
20260503090204 13 125 0.0 3.2 0.00 0.00 0.00 82 1014.6
20260503080204 12 120 0.0 3.2 0.00 0.00 0.00 80 1015.1
20260503072704 13 127 0.0 1.6 0.00 0.00 0.00 81 1015.3
20260503072204 13 127 0.0 1.6 0.00 0.00 0.00 81 1015.2
20260503071704 13 127 0.0 1.6 0.00 0.00 0.00 81 1015.2
20260503071206 13 124 0.0 3.2 0.00 0.00 0.00 81 1015.2
20260503070704 13 131 0.0 3.2 0.00 0.00 0.00 81 1015.2
20260503070205 13 125 0.0 3.2 0.00 0.00 0.00 81 1015.2
20260503060204 13 129 0.0 3.2 0.00 0.00 0.00 80 1015.4
20260503054703 13 117 0.0 1.6 0.00 0.00 0.00 81 1015.5
20260503054203 13 117 0.0 1.6 0.00 0.00 0.00 80 1015.6
20260503053703 13 124 0.0 1.6 0.00 0.00 0.00 80 1015.5
20260503053203 13 124 0.0 0.0 0.00 0.00 0.00 80 1015.6
20260503052703 13 124 0.0 0.0 0.00 0.00 0.00 80 1015.6
20260503052203 13 124 0.0 1.6 0.00 0.00 0.00 80 1015.7
20260503051703 13 124 0.0 1.6 0.00 0.00 0.00 80 1015.6
20260503051203 13 130 0.0 3.2 0.00 0.00 0.00 80 1015.6
20260503050703 13 123 1.6 3.2 0.00 0.00 0.00 80 1015.7
20260503050203 13 113 0.0 1.6 0.00 0.00 0.00 81 1015.6
20260503045204 13 125 0.0 3.2 0.00 0.00 0.00 81 1015.6
20260503044703 13 127 1.6 3.2 0.00 0.00 0.00 81 1015.5
20260503043703 13 129 0.0 8.0 0.00 0.00 0.00 81 1015.4
20260503043203 13 121 1.6 4.8 0.00 0.00 0.00 80 1015.4
20260503042703 13 121 0.0 4.8 0.00 0.00 0.00 80 1015.4
20260503042203 13 125 1.6 4.8 0.00 0.00 0.00 80 1015.3
20260503041203 13 124 1.6 4.8 0.00 0.00 0.00 79 1015.4
20260503040704 13 126 0.0 4.8 0.00 0.00 0.00 79 1015.3
20260503035704 13 125 0.0 3.2 0.00 0.00 0.00 79 1015.2
20260503035203 13 121 0.0 4.8 0.00 0.00 0.00 79 1015.1
20260503034703 13 141 0.0 4.8 0.00 0.00 0.00 79 1015.1
20260503034203 13 129 1.6 4.8 0.00 0.00 0.00 79 1015.0
20260503033703 13 134 0.0 1.6 0.00 0.00 0.00 79 1014.9
20260503033203 13 124 0.0 1.6 0.00 0.00 0.00 79 1014.9
20260503032703 13 119 0.0 1.6 0.00 0.00 0.00 79 1014.9
20260503031703 13 144 0.0 3.2 0.00 0.00 0.00 78 1014.8
20260503031203 13 127 0.0 3.2 0.00 0.00 0.00 78 1014.7
20260503030203 13 128 0.0 4.8 0.00 0.00 0.00 78 1014.5
20260503025703 13 130 0.0 4.8 0.00 0.00 0.00 78 1014.4
20260503025203 13 126 0.0 4.8 0.00 0.00 0.00 77 1014.4
20260503024203 13 128 0.0 3.2 0.00 0.00 0.00 77 1014.2
20260503022704 14 124 0.0 4.8 0.00 0.00 0.00 75 1014.3
20260503022204 14 126 0.0 4.8 0.00 0.00 0.00 75 1014.3
20260503021703 14 131 0.0 4.8 0.00 0.00 0.00 74 1014.3
20260503021204 15 121 0.0 4.8 0.00 0.00 0.00 73 1014.2
20260503020704 15 126 0.0 4.8 0.00 0.00 0.00 73 1014.2
20260503015703 15 122 0.0 3.2 0.00 0.00 0.00 72 1014.2
20260503015204 15 147 0.0 3.2 0.00 0.00 0.00 72 1014.3
20260503014203 16 126 0.0 3.2 0.00 0.00 0.00 71 1014.2
20260503013703 16 115 0.0 3.2 0.00 0.00 0.00 71 1014.2
20260503012706 16 131 0.0 4.8 0.00 0.00 0.00 70 1014.3
20260503011704 16 130 0.0 9.7 0.00 0.00 0.00 69 1014.3
20260503010203 17 138 0.0 3.2 0.00 0.00 0.00 68 1014.3
20260503005704 17 128 0.0 3.2 0.00 0.00 0.00 68 1014.2
20260503005204 17 148 0.0 8.0 0.00 0.00 0.00 67 1014.2
20260503004703 18 139 1.6 8.0 0.00 0.00 0.00 67 1014.2
20260503003703 18 126 0.0 3.2 0.00 0.00 0.00 66 1014.2
20260503002704 18 126 0.0 8.0 0.00 0.00 0.00 67 1014.3
20260503002204 18 130 1.6 8.0 0.00 0.00 0.00 67 1014.2
20260503001703 18 126 0.0 1.6 0.00 0.00 0.00 67 1014.3
20260502235708 18 129 0.0 3.2 0.00 0.00 0.00 67 1014.2
20260502235204 18 143 0.0 4.8 0.00 0.00 0.00 68 1014.3
20260502234703 18 156 1.6 4.8 0.00 0.00 0.00 67 1014.3
20260502233704 18 158 1.6 4.8 0.00 0.00 0.00 66 1014.4
20260502233204 18 164 0.0 4.8 0.00 0.00 0.00 67 1014.4
20260502232704 18 145 1.6 4.8 0.00 0.00 0.00 67 1014.4
20260502231703 18 147 1.6 12.9 0.00 0.00 0.00 67 1014.6
20260502231203 18 125 1.6 4.8 0.00 0.00 0.00 68 1014.7
20260502230704 18 142 0.0 9.7 0.00 0.00 0.00 68 1014.7
20260502225203 18 151 0.0 4.8 0.00 0.00 0.00 69 1015.0
20260502224704 18 156 1.6 4.8 0.00 0.00 0.00 69 1014.9
20260502224203 18 139 0.0 4.8 0.00 0.00 0.00 68 1015.1
20260502223704 18 145 1.6 4.8 0.00 0.00 0.00 69 1015.0
20260502222704 18 147 1.6 4.8 0.00 0.00 0.00 69 1015.2
20260502222203 18 128 1.6 4.8 0.00 0.00 0.00 69 1015.4
20260502221704 18 144 1.6 4.8 0.00 0.00 0.00 68 1015.4
20260502221203 18 157 1.6 8.0 0.00 0.00 0.00 67 1015.6
20260502220703 18 162 1.6 8.0 0.00 0.00 0.00 68 1015.7
20260502215703 18 134 0.0 3.2 0.00 0.00 0.00 69 1015.7
20260502215204 18 119 0.0 9.7 0.00 0.00 0.00 69 1015.8
20260502214704 18 132 1.6 9.7 0.00 0.00 0.00 67 1015.8
20260502213705 19 149 0.0 4.8 0.00 0.00 0.00 66 1015.8
20260502213204 19 136 1.6 4.8 0.00 0.00 0.00 67 1015.8
20260502212703 19 128 0.0 3.2 0.00 0.00 0.00 66 1015.9
20260502211704 20 107 0.0 3.2 0.00 0.00 0.00 66 1016.0
20260502211205 20 114 0.0 3.2 0.00 0.00 0.00 65 1016.0
20260502205704 19 154 0.0 3.2 0.00 0.00 0.00 68 1016.2
20260502205204 19 105 0.0 3.2 0.00 0.00 0.00 68 1016.3
20260502204703 18 107 0.0 4.8 0.00 0.00 0.00 69 1016.4
20260502204204 18 123 0.0 4.8 0.00 0.00 0.00 69 1016.4
20260502203703 18 137 0.0 4.8 0.00 0.00 0.00 69 1016.4
20260502203203 18 133 0.0 4.8 0.00 0.00 0.00 69 1016.7
20260502202704 18 131 0.0 4.8 0.00 0.00 0.00 69 1016.7
20260502201203 18 126 1.6 4.8 0.00 0.00 0.00 70 1016.8
20260502195704 18 125 1.6 4.8 0.00 0.00 0.00 69 1016.9
20260502195204 18 120 0.0 3.2 0.00 0.00 0.00 70 1016.9
20260502194704 18 117 0.0 4.8 0.00 0.00 0.00 70 1016.9
20260502194204 18 128 0.0 4.8 0.00 0.00 0.00 70 1017.1
20260502193704 18 125 0.0 4.8 0.00 0.00 0.00 69 1017.0